Beaufort MCAS, SC

12:04 PM EDT on May 24, 2017 (GMT -0400)
Beaufort Marine Corps Air Station

Weather History for KNBC - September, 2015

Change the Weather History Date:

Wednesday, September 23, 2015

  Actual Average Record
Temperature  
Mean Temperature 75 °F -  
Max Temperature 81 °F 84 °F 92 °F (1931)
Min Temperature 69 °F 65 °F 51 °F (1938)
Cooling Degree Days 10    
Growing Degree Days 25 (Base 50)    
Moisture  
Dew Point 65 °F    
Average Humidity 74    
Maximum Humidity 84    
Minimum Humidity 62    
Precipitation  
Precipitation 0.00 in - - ()
Sea Level Pressure  
Sea Level Pressure 30.04 in    
Wind  
Wind Speed 10 mph (NNE)    
Max Wind Speed 15 mph    
Max Gust Speed 22 mph    
Visibility 10 miles    
Events      
Averages and records for this station are not official NWS values.
T = Trace of Precipitation, MM = Missing Value Source: NWS Daily Summary

Daily Weather History Graph

Daily Weather History Graph

Search for Another Location

Airport or City:

Trip Planner

Search our weather history database for the weather conditions in past years. The results will help you decide how hot, cold, wet, or windy it might be!

Date:

Astronomy

Sep. 23, 2015 Rise Set
Actual Time 7:11 AM EDT 7:18 PM EDT
Civil Twilight 6:47 AM EDT 7:43 PM EDT
Nautical Twilight 6:18 AM EDT 8:11 PM EDT
Astronomical Twilight 5:49 AM EDT 8:40 PM EDT
Moon 4:05 PM EDT (9/23) 2:08 AM EDT (9/23)
Length of Visible Light 12h 56m
Length of Day
12h 06m
Waxing Gibbous, 74% of the Moon is Illuminated
Sep 23
Waxing Gibbous
Sep 27
Full
Oct 4
Last Quarter
Oct 12
New
Oct 20
First Quarter

Hourly Weather History & Observations

Time (EDT) Temp. Heat Index Dew Point Humidity Pressure Visibility Wind Dir Wind Speed Gust Speed Precip Events Conditions
12:56 AM 72.0 °F - 66.0 °F 81% 30.04 in 10.0 mi North 10.4 mph - N/A   Clear
1:56 AM 71.1 °F - 66.0 °F 84% 30.03 in 10.0 mi NNE 10.4 mph - N/A   Mostly Cloudy
2:56 AM 71.1 °F - 64.9 °F 81% 30.03 in 10.0 mi North 8.1 mph - N/A   Clear
3:56 AM 70.0 °F - 64.9 °F 84% 30.01 in 10.0 mi North 8.1 mph - N/A   Partly Cloudy
4:56 AM 69.1 °F - 64.0 °F 84% 30.01 in 10.0 mi North 8.1 mph - N/A   Partly Cloudy
5:56 AM 69.1 °F - 64.0 °F 84% 30.01 in 10.0 mi North 8.1 mph - N/A   Clear
6:35 AM 69.1 °F - 64.0 °F 84% 30.02 in 10.0 mi North 8.1 mph - N/A   Scattered Clouds
6:56 AM 69.1 °F - 64.0 °F 84% 30.03 in 10.0 mi North 9.2 mph - N/A   Scattered Clouds
7:56 AM 70.0 °F - 64.0 °F 81% 30.05 in 10.0 mi North 8.1 mph - N/A   Mostly Cloudy
8:56 AM 71.1 °F - 64.0 °F 78% 30.06 in 10.0 mi NNE 10.4 mph - N/A   Mostly Cloudy
9:46 AM 73.0 °F - 64.9 °F 76% 30.07 in 10.0 mi NNE 10.4 mph - N/A   Mostly Cloudy
9:56 AM 73.0 °F - 64.9 °F 76% 30.07 in 10.0 mi NNE 11.5 mph - N/A   Mostly Cloudy
10:56 AM 75.0 °F - 64.9 °F 71% 30.08 in 10.0 mi NE 12.7 mph 20.7 mph N/A   Overcast
11:56 AM 77.0 °F - 66.9 °F 71% 30.07 in 10.0 mi NNE 10.4 mph - N/A   Overcast
12:56 PM 80.1 °F 82.3 °F 66.9 °F 64% 30.05 in 10.0 mi NNE 15.0 mph 21.9 mph N/A   Mostly Cloudy
1:03 PM 81.0 °F 83.3 °F 66.9 °F 62% 30.05 in 10.0 mi NE 13.8 mph - N/A   Scattered Clouds
1:56 PM 80.1 °F 82.3 °F 66.9 °F 64% 30.04 in 10.0 mi NNE 13.8 mph - N/A   Mostly Cloudy
2:13 PM 79.0 °F - 66.0 °F 64% 30.03 in 10.0 mi NE 12.7 mph - N/A   Overcast
2:56 PM 79.0 °F - 66.0 °F 64% 30.03 in 10.0 mi NNE 12.7 mph - N/A   Overcast
3:56 PM 78.1 °F - 66.0 °F 66% 30.03 in 10.0 mi NNE 10.4 mph - N/A   Overcast
4:56 PM 78.1 °F - 66.0 °F 66% 30.02 in 10.0 mi NNE 6.9 mph - N/A   Overcast
5:56 PM 77.0 °F - 64.9 °F 66% 30.01 in 10.0 mi North 8.1 mph - N/A   Overcast
6:56 PM 75.9 °F - 64.9 °F 69% 30.02 in 10.0 mi NNE 6.9 mph - N/A   Mostly Cloudy
7:56 PM 75.0 °F - 64.9 °F 71% 30.02 in 10.0 mi North 11.5 mph - N/A   Overcast
8:56 PM 75.0 °F - 64.9 °F 71% 30.04 in 10.0 mi North 9.2 mph - N/A   Overcast
9:56 PM 73.9 °F - 64.9 °F 73% 30.03 in 10.0 mi North 9.2 mph - N/A   Overcast
10:56 PM 73.9 °F - 64.9 °F 73% 30.04 in 10.0 mi North 9.2 mph - N/A   Overcast
11:56 PM 73.0 °F - 64.0 °F 73% 30.03 in 10.0 mi North 10.4 mph - N/A   Mostly Cloudy